STARLINK-4434, 53501

Orbit data source: Space-Track

STARLINK-4434, 53501 is a payload satellite owned by SpaceX/Seattle (US) in SSO that was launched on Fri, 12 Aug 2022 UTC via an FALCON 9 launch vehicle from the Air Force Western Test Range (AFWTR). Payload-class satellites include a variety of spacecraft equipped with specific instruments for various scientific and technological missions. These include communications satellites like Starlink; space stations such as the ISS; scientific satellites like the Hubble; Earth observation satellites from companies like Planet Labs, Umbra, and HawkEye 360; GPS; miniature CubeSats for education and research; and military/defense satellites.

Loading next visibility...
Identifier
53501, 2022-099AN
Orbit
SSO
Country
Flag of USUS
Related business
Manufacturer
SpaceX/Seattle
Mission
Operational Commercial Communications
Bus & Motor
STARLINK, Unknown motor
Mass
300 kg wet, ~275 kg dry
Launch date (UTC)
2022-08-12 (3 years ago)
Launch vehicle
FALCON 9
Launch site
Air Force Western Test Range (AFWTR)
Object type
Payload
Rocket body
Debris
Shape & HBR
Box + 1 Pan, 10.1 m
Radar Cross Section
13.562 m², Large (>1 m²)

Expand to show TLE details & history
Last TLE update: 7 hours ago

TLE from 7 hours ago
0 STARLINK-4434
1 53501U 22099AN  25308.29715868  .00000215  00000-0  21295-4 0  9991
2 53501  97.6048  67.4493 0002366 238.2819 121.8175 15.01264387177178
Epoch: 2025-11-04T07:07Z
TLE epoch observation values (Epoch: 2025-11-04T07:07:54.509Z)
Latitude
-0.00005°
Longitude
-83.31402°
Altitude
566.922 km
Speed
7.577 km/s
True Right ascension
04h 29m 47s
True Declination
0° 00' 00"
Sunlit
Object was in full shadow at epoch
Visualization orbit readout
Latitude
Unknown
Longitude
Unknown
Altitude
Unknown
Speed
Unknown
Apparent Right ascension
Unknown
Apparent Declination
Unknown
Sunlit
N/A
Visualization observer readout
Local Sidereal Time
09:44:12
Azimuth
Unknown
Elevation
Unknown
Doppler factor
Unknown
Orbital elements
Apogee altitude
561.637 km
Perigee altitude
558.354 km
Semi-major axis
6,938.133 km
Eccentricity
0.00024
Inclination
97.6048°
RAAN
67.4493°
Arg. of periapsis
238.2819°
True anomaly
121.84053°
Mean anomaly
121.8175°
Eccentric anomaly
121.82902°
Mean motion
3.7556 °/min
Orbital period
95.86 mins
BSTAR
0.000021295
Loading maneuver chart data...
Computing Atmospheric mass density...
Loading historical data...
Loading historical data...
Loading historical data...
Loading historical data...
Loading historical data...
Loading historical data...
Loading historical data...

Documentation

Showing up to 5 results
|